Back to catalog

SL-12 R/B(2)

AliveMEO
NORAD 18360·ROCKET BODY·🇷🇺 Russia

Launched Sep 16, 1987 from Baikonur Cosmodrome

Loading…

Next Passes (next 24 hours)

TLE

FreshSource: Space-Track

Epoch: Sep 14, 2026, 04:28 UTC

1 18360U 87079F   26257.18635332 -.00000056  00000-0  00000-0 0  9994
2 18360  65.5114 314.3050 0009576 238.6612 121.4879  2.13418365303824

Track SL-12 R/B(2) in real time with AllMySat

Download on the App Store